Location: Coffee Creek Observatory
(38.8077°N, 94.7179°W)
Time: 04:49:52
(UTC-05:00)

Amateur Radio Satellites - All Passes

Search period start: 01 August 2014 04:19
Search period end: 02 August 2014 04:19
Location: Coffee Creek Observatory, 38.8077°N, 94.7179°W

Satellite Date Start Highest point End Downlink Frequencies (MHz)
Time Altitude Azimuth
ITAMSAT 1 01 Aug 04:33:04 04:37:28 29° 293° (WNW) 04:41:52 435.822 SSB
AO-7 01 Aug 04:33:38 04:40:06 24° 94° (E) 04:46:29 29.400 - 29.500 MHz
Uribyol 2 01 Aug 04:52:20 04:55:51 19° 296° (WNW) 04:59:22 436.500 FM
AO-27 01 Aug 04:53:51 04:57:26 19° 296° (WNW) 05:00:59 436.795 MHz FM
AO-Echo 01 Aug 05:07:05 05:09:16 13° 299° (WNW) 05:11:24 ?
ISS 01 Aug 05:07:16 05:10:31 43° 34° (NNE) 05:13:44 145.800 FM
TMSAT-1 01 Aug 05:07:38 05:12:39 45° 289° (WNW) 05:17:39 436.925 FM
PANSAT 01 Aug 05:11:48 05:14:26 17° 178° (S) 05:17:03 not established
KITSAT 1 01 Aug 05:12:39 05:19:39 34° 107° (ESE) 05:26:40 435.175 FM
JAS-1B 01 Aug 05:16:24 05:24:39 39° 298° (WNW) 05:31:49 435.800 - 435.900 CW/SSB
MaSat-1 01 Aug 05:18:29 05:21:42 16° 49° (NE) 05:24:48 437.345 MHz
Uosat F 01 Aug 05:25:59 05:30:57 60° 101° (ESE) 05:35:53 435.120 FM
OPAL 01 Aug 05:35:13 05:39:00 22° 263° (W) 05:42:49 ?
Gurwin Techsat 1B 01 Aug 05:35:16 05:38:59 20° 296° (WNW) 05:42:42 435.225 FM
Saudisat 1A 01 Aug 06:04:14 06:06:15 13° 108° (ESE) 06:08:16 436.775 MHz
STRAND 1 01 Aug 06:24:30 06:28:47 28° 67° (ENE) 06:33:05 ?
AO-7 01 Aug 06:25:11 06:33:27 69° 292° (WNW) 06:41:38 29.400 - 29.500 MHz
ISS 01 Aug 06:44:33 06:47:00 19° 229° (SW) 06:49:27 145.800 FM
JAS-2 01 Aug 06:49:07 06:53:55 28° 94° (E) 06:58:23 435.800 - 435.900 CW/SSB, 435.910 FM
PANSAT 01 Aug 06:51:49 06:53:59 14° 191° (S) 06:56:08 not established
MaSat-1 01 Aug 06:54:24 06:59:41 77° 248° (WSW) 07:04:32 437.345 MHz
Uosat F 01 Aug 07:06:18 07:09:13 16° 298° (WNW) 07:12:08 435.120 FM
KITSAT 1 01 Aug 07:06:49 07:14:41 54° 306° (NW) 07:22:36 435.175 FM
Hamsat 01 Aug 07:11:21 07:15:39 65° 101° (E) 07:19:58 145.90 MHz
Saudisat 1A 01 Aug 07:40:57 07:45:18 60° 304° (NW) 07:49:42 436.775 MHz
STRAND 1 01 Aug 08:03:12 08:07:49 34° 263° (W) 08:12:28 ?
AO-7 01 Aug 08:20:34 08:24:42 15° 311° (NW) 08:28:50 29.400 - 29.500 MHz
SO-67 01 Aug 08:24:44 08:28:12 71° 101° (E) 08:31:39 435.3500 MHz FM
JAS-2 01 Aug 08:33:58 08:39:05 34° 293° (WNW) 08:43:49 435.800 - 435.900 CW/SSB, 435.910 FM
Sapphire 01 Aug 08:43:58 08:48:07 22° 49° (NE) 08:52:15 437.095 MHz 1200 baud AX-25 AFSK
Hamsat 01 Aug 08:49:46 08:51:04 11° 296° (WNW) 08:52:21 145.90 MHz
KITSAT 1 01 Aug 09:07:50 09:12:11 15° 330° (NNW) 09:16:32 435.175 FM
HO-68 01 Aug 09:07:58 09:12:42 19° 92° (E) 09:17:24 435.675 MHz FM
PCSat 01 Aug 09:16:26 09:21:33 40° 56° (NE) 09:26:37 145.825 MHz
UKube-1 01 Aug 09:43:21 09:46:11 17° 94° (E) 09:49:00 145.840 MHz, 145.915 MHz
Oscar 11 01 Aug 10:23:51 10:27:30 26° 96° (E) 10:31:07 145.825 FM, Beacon 2401.500 USB
Sapphire 01 Aug 10:26:35 10:31:54 57° 247° (WSW) 10:37:10 437.095 MHz 1200 baud AX-25 AFSK
HO-68 01 Aug 10:53:53 11:01:01 75° 288° (WNW) 11:08:06 435.675 MHz FM
FUNcube-1 01 Aug 10:55:40 10:58:50 20° 95° (E) 11:02:01 145.950 - 145.970 MHz USB
PCSat 01 Aug 11:00:16 11:04:44 27° 252° (WSW) 11:09:10 145.825 MHz
UKube-1 01 Aug 11:18:28 11:22:32 39° 289° (WNW) 11:26:33 145.840 MHz, 145.915 MHz
SO-50 01 Aug 11:30:42 11:34:34 30° 113° (ESE) 11:38:29 436.795 FM
Oscar 11 01 Aug 12:00:00 12:03:36 26° 291° (WNW) 12:07:11 145.825 FM, Beacon 2401.500 USB
RS-15 01 Aug 12:21:36 12:31:23 37° 107° (ESE) 12:40:55 29.354 - 29.394 USB, Beacon 29.352 USB
FUNcube-1 01 Aug 12:31:35 12:35:15 30° 289° (WNW) 12:38:57 145.950 - 145.970 MHz USB
HO-68 01 Aug 12:44:14 12:47:31 14° 307° (NW) 12:50:48 435.675 MHz FM
AO-Echo 01 Aug 13:03:44 13:04:33 10° 59° (ENE) 13:05:22 ?
KITSAT 1 01 Aug 13:07:04 13:12:00 17° 33° (NNE) 13:16:53 435.175 FM
UOSAT-12 01 Aug 13:11:09 13:14:44 23° 111° (ESE) 13:18:23 437.025 FM, 437.400 FM
SO-50 01 Aug 13:11:10 13:15:04 29° 310° (NW) 13:19:03 436.795 FM
Oscar 19 01 Aug 13:13:06 13:17:19 27° 67° (ENE) 13:21:33 437.125 CW, 437.150 USB
Oscar 16 01 Aug 13:41:17 13:46:13 52° 72° (ENE) 13:51:11 437.025 USB, Beacon 2401.1428
JAS-1B 01 Aug 14:06:22 14:14:42 41° 63° (ENE) 14:23:37 435.800 - 435.900 CW/SSB
ITAMSAT 1 01 Aug 14:10:09 14:15:03 43° 70° (ENE) 14:19:58 435.822 SSB
Uribyol 2 01 Aug 14:28:19 14:33:28 69° 74° (ENE) 14:38:38 436.500 FM
AO-27 01 Aug 14:30:05 14:35:15 69° 74° (ENE) 14:40:27 436.795 MHz FM
Saudisat 1A 01 Aug 14:32:09 14:32:54 10° 39° (NE) 14:33:39 436.775 MHz
RS-15 01 Aug 14:32:10 14:43:07 61° 307° (NW) 14:53:56 29.354 - 29.394 USB, Beacon 29.352 USB
AO-Echo 01 Aug 14:37:07 14:42:26 81° 76° (ENE) 14:47:46 ?
TMSAT-1 01 Aug 14:48:02 14:52:33 30° 68° (ENE) 14:57:05 436.925 FM
UOSAT-12 01 Aug 14:50:21 14:54:38 38° 308° (NW) 14:59:02 437.025 FM, 437.400 FM
Oscar 19 01 Aug 14:51:53 14:56:29 34° 263° (W) 15:01:09 437.125 CW, 437.150 USB
KITSAT 1 01 Aug 15:01:11 15:09:13 62° 56° (ENE) 15:17:09 435.175 FM
Gurwin Techsat 1B 01 Aug 15:14:02 15:19:18 72° 74° (ENE) 15:24:36 435.225 FM
Oscar 16 01 Aug 15:22:34 15:25:52 17° 268° (W) 15:29:10 437.025 USB, Beacon 2401.1428
AO-7 01 Aug 15:31:17 15:38:23 32° 59° (ENE) 15:45:28 29.400 - 29.500 MHz
ITAMSAT 1 01 Aug 15:50:47 15:54:42 21° 266° (W) 15:58:39 435.822 SSB
JAS-1B 01 Aug 15:56:02 16:04:45 54° 262° (W) 16:14:23 435.800 - 435.900 CW/SSB
Saudisat 1A 01 Aug 16:08:51 16:13:16 73° 58° (ENE) 16:17:39 436.775 MHz
OPAL 01 Aug 16:09:03 16:10:23 11° 92° (E) 16:11:43 ?
Uribyol 2 01 Aug 16:11:03 16:13:24 13° 269° (W) 16:15:45 436.500 FM
AO-27 01 Aug 16:12:48 16:15:13 13° 269° (W) 16:17:39 436.795 MHz FM
AO-Echo 01 Aug 16:20:07 16:21:45 11° 271° (W) 16:23:23 ?
TMSAT-1 01 Aug 16:27:38 16:32:21 33° 263° (W) 16:37:06 436.925 FM
Uosat F 01 Aug 16:37:52 16:42:53 73° 74° (ENE) 16:47:56 435.120 FM
RS-15 01 Aug 16:50:31 16:58:22 22° 336° (NNW) 17:06:16 29.354 - 29.394 USB, Beacon 29.352 USB
Gurwin Techsat 1B 01 Aug 16:57:25 16:59:46 13° 270° (W) 17:02:07 435.225 FM
KITSAT 1 01 Aug 16:57:29 17:04:01 28° 255° (WSW) 17:10:33 435.175 FM
JAS-2 01 Aug 17:00:38 17:04:52 16° 59° (ENE) 17:08:57 435.800 - 435.900 CW/SSB, 435.910 FM
AO-7 01 Aug 17:22:31 17:30:41 58° 257° (WSW) 17:38:56 29.400 - 29.500 MHz
OPAL 01 Aug 17:44:39 17:49:46 80° 287° (WNW) 17:54:56 ?
Saudisat 1A 01 Aug 17:51:45 17:52:13 10° 253° (WSW) 17:52:40 436.775 MHz
Hamsat 01 Aug 18:03:38 18:07:30 37° 72° (ENE) 18:11:24 145.90 MHz
Uosat F 01 Aug 18:20:28 18:22:10 12° 270° (W) 18:23:53 435.120 FM
JAS-2 01 Aug 18:41:13 18:49:00 83° 75° (ENE) 18:56:12 435.800 - 435.900 CW/SSB, 435.910 FM
SO-67 01 Aug 18:57:28 18:59:58 19° 70° (ENE) 19:02:29 435.3500 MHz FM
RS-15 01 Aug 19:09:47 19:16:41 18° 14° (NNE) 19:23:39 29.354 - 29.394 USB, Beacon 29.352 USB
HO-68 01 Aug 19:37:46 19:41:01 14° 53° (NE) 19:44:15 435.675 MHz FM
Hamsat 01 Aug 19:41:01 19:43:37 16° 268° (W) 19:46:14 145.90 MHz
SO-50 01 Aug 20:03:15 20:07:03 23° 47° (NE) 20:10:53 436.795 FM
STRAND 1 01 Aug 20:14:29 20:19:37 90° 292° (WNW) 20:24:43 ?
JAS-2 01 Aug 20:29:32 20:34:30 18° 269° (W) 20:39:18 435.800 - 435.900 CW/SSB, 435.910 FM
SO-67 01 Aug 20:30:12 20:32:54 21° 265° (W) 20:35:38 435.3500 MHz FM
UKube-1 01 Aug 20:38:40 20:40:54 14° 64° (ENE) 20:43:07 145.840 MHz, 145.915 MHz
MaSat-1 01 Aug 20:43:48 20:47:48 61° 110° (ESE) 20:52:29 437.345 MHz
Oscar 11 01 Aug 21:18:29 21:21:25 18° 67° (ENE) 21:24:22 145.825 FM, Beacon 2401.500 USB
HO-68 01 Aug 21:20:22 21:27:30 74° 71° (ENE) 21:34:39 435.675 MHz FM
RS-15 01 Aug 21:22:42 21:33:06 44° 46° (NE) 21:43:46 29.354 - 29.394 USB, Beacon 29.352 USB
UOSAT-12 01 Aug 21:41:43 21:44:57 18° 44° (NE) 21:48:08 437.025 FM, 437.400 FM
SO-50 01 Aug 21:43:16 21:47:49 45° 244° (WSW) 21:52:24 436.795 FM
ISS 01 Aug 21:48:57 21:51:48 27° 133° (SE) 21:54:40 145.800 FM
FUNcube-1 01 Aug 21:52:02 21:54:30 15° 66° (ENE) 21:56:56 145.950 - 145.970 MHz USB
STRAND 1 01 Aug 21:56:51 21:58:01 11° 301° (WNW) 21:59:11 ?
UKube-1 01 Aug 22:12:22 22:16:38 53° 259° (W) 22:20:55 145.840 MHz, 145.915 MHz
MaSat-1 01 Aug 22:23:01 22:25:41 16° 312° (NW) 22:28:33 437.345 MHz
Oscar 11 01 Aug 22:53:20 22:57:19 37° 262° (W) 23:01:20 145.825 FM, Beacon 2401.500 USB
HO-68 01 Aug 23:10:59 23:15:47 19° 268° (W) 23:20:37 435.675 MHz FM
UOSAT-12 01 Aug 23:20:51 23:25:32 63° 242° (WSW) 23:30:07 437.025 FM, 437.400 FM
Sapphire 01 Aug 23:25:07 23:29:12 22° 106° (ESE) 23:33:19 437.095 MHz 1200 baud AX-25 AFSK
ISS 01 Aug 23:25:24 23:28:26 32° 329° (NNW) 23:31:30 145.800 FM
FUNcube-1 01 Aug 23:26:28 23:30:33 43° 261° (W) 23:34:36 145.950 - 145.970 MHz USB
RS-15 01 Aug 23:35:04 23:45:46 57° 248° (WSW) 23:56:54 29.354 - 29.394 USB, Beacon 29.352 USB
PCSat 01 Aug 23:56:46 00:01:55 47° 112° (ESE) 00:07:07 145.825 MHz
ISS 02 Aug 01:04:58 01:05:59 11° 349° (NNW) 01:07:00 145.800 FM
Sapphire 02 Aug 01:07:05 01:12:16 47° 303° (WNW) 01:17:30 437.095 MHz 1200 baud AX-25 AFSK
PCSat 02 Aug 01:41:09 01:45:33 25° 310° (NW) 01:49:59 145.825 MHz
Oscar 16 02 Aug 01:55:04 01:58:53 21° 94° (E) 02:02:41 437.025 USB, Beacon 2401.1428
ITAMSAT 1 02 Aug 02:25:30 02:28:46 17° 92° (E) 02:32:01 435.822 SSB
Uribyol 2 02 Aug 02:42:58 02:47:18 27° 96° (E) 02:51:36 436.500 FM
ISS 02 Aug 02:43:16 02:43:57 10° 9° (N) 02:44:38 145.800 FM
AO-27 02 Aug 02:45:03 02:49:24 27° 96° (E) 02:53:43 436.795 MHz FM
AO-Echo 02 Aug 02:46:41 02:50:57 28° 95° (E) 02:55:05 ?
Oscar 19 02 Aug 03:04:05 03:09:17 88° 284° (WNW) 03:14:28 437.125 CW, 437.150 USB
TMSAT-1 02 Aug 03:06:53 03:08:56 12° 90° (E) 03:10:59 436.925 FM
PANSAT 02 Aug 03:08:28 03:09:57 12° 166° (SSE) 03:11:26 not established
OPAL 02 Aug 03:21:46 03:25:07 19° 62° (ENE) 03:28:29 ?
Gurwin Techsat 1B 02 Aug 03:31:59 03:36:42 31° 96° (E) 03:41:22 435.225 FM
Oscar 16 02 Aug 03:33:30 03:38:24 45° 289° (WNW) 03:43:18 437.025 USB, Beacon 2401.1428
JAS-1B 02 Aug 03:44:39 03:53:40 64° 100° (E) 04:01:11 435.800 - 435.900 CW/SSB
ITAMSAT 1 02 Aug 04:03:32 04:08:35 54° 288° (WNW) 04:13:35 435.822 SSB
